星链-1664 (STARLINK-1664 )

导读 | 星芒AI

STARLINK-1664 是 SpaceX Starlink 项目中的一颗低轨通信卫星,属于第三代星链卫星(Starlink Gen2)的一部分。该卫星于2023年发射,旨在为全球用户提供高速、低延迟的互联网服务。它运行在约550公里高的近地轨道,配备先进通信设备,支持更广覆盖和更高带宽。Starlink 卫星群的部署有助于改善偏远地区的网络接入,推动全球互联网普及。

基本信息
目录编号:
46553
目录名称:
STARLINK-1664
国际标识:
2020-070X
轨道中心:
EARTH
卫星名称:
星链-1664
卫星全名:
星链-1664 (STARLINK-1664 )
卫星状态:
在轨 (已飞行1897 天)
发射日期:
2020-10-06 UTC
国别 :
美国 (US)
星等 :
--
轨道信息
数据来源 国际轨道数据 AOE轨道数据
星历时间 2025-12-16T05:43:22+0800
11小时前
查看轨道信息
2025-12-14T11:00:00+0800
2天前
查看轨道信息
半长轴 6925.345km 6925.373km
偏心率 0.0001322 0.0001469
轨道倾角 53.053° 53.050°
近地点辐角 90.871° 63.151°
升交点赤经 162.751° 170.737°
平近点角 269.243° 357.976°
近地点 546.294km 546.22km
远地点 548.126km 548.256km
周期 95.592分钟 95.593分钟
每日圈数 15.064012 15.063921
详细信息
固有亮度:
5
最大亮度:
2.5
卫星平台:
Starlink V1.0
覆盖范围:
全球
运营商:
太空探索技术公司
运营商所在国:
美国
制造商(研发单位):
太空探索技术公司
制造商所在国:
美国
使用方式:
暂无
卫星简介
星链(Starlink)计划是由太空探索技术公司(SpaceX)提出的一个巨型低轨卫星互联网星座项目,计划在2019年至2024年间在太空搭建由约1.2万颗卫星组成的“星链”网络,其中1584颗将部署在地球上空550千米处的近地轨道,并从2020年开始工作。该卫星仍在工作。
2D轨道图
3D轨道图
轨道高度分析图
轨道倾角分析图
轨道综合分析图
查看轨道综合分析图